This is the latest recevied weather packets stored in our database for station/object YC0ACE-13. If no packets are shown the sender has not sent any weather packets the latest 10 day(s).
| Time | Temp. | Humidity | Pressure | Rain* | Wind** | Luminosity | Snow |
|---|---|---|---|---|---|---|---|
| 1787743824 | 29.44° C | 71% | 1011.9 hPa | 0 mm | - | 0 W/m² | - |
| 1787743525 | 29.44° C | 71% | 1011.9 hPa | 0 mm | - | 0 W/m² | - |
| 1787743224 | 29.44° C | 71% | 1011.9 hPa | 0 mm | - | 0 W/m² | - |
| 1787742925 | 29.44° C | 71% | 1011.5 hPa | 0 mm | - | 0 W/m² | - |
| 1787742624 | 29.44° C | 71% | 1011.5 hPa | 0 mm | - | 0 W/m² | - |
| 1787742325 | 29.44° C | 71% | 1011.9 hPa | 0 mm | - | 0 W/m² | - |
| 1787742024 | 29.44° C | 70% | 1011.5 hPa | 0 mm | - | 1 W/m² | - |
| 1787741725 | 30° C | 69% | 1011.2 hPa | 0 mm | - | 3 W/m² | - |
| 1787741425 | 30° C | 69% | 1011.2 hPa | 0 mm | - | 5 W/m² | - |
| 1787741125 | 30° C | 68% | 1011.2 hPa | 0 mm | - | 8 W/m² | - |
| 1787740826 | 30° C | 69% | 1011.2 hPa | 0 mm | - | 11 W/m² | - |
| 1787740525 | 30° C | 69% | 1011.2 hPa | 0 mm | - | 15 W/m² | - |
| 1787740225 | 30° C | 68% | 1011.5 hPa | 0 mm | - | 22 W/m² | - |
| 1787739925 | 30° C | 68% | 1010.8 hPa | 0 mm | - | 28 W/m² | - |
| 1787739625 | 30° C | 67% | 1010.8 hPa | 0 mm | - | 35 W/m² | - |
| 1787739325 | 30.56° C | 68% | 1010.8 hPa | 0 mm | - | 44 W/m² | - |
| 1787739025 | 30.56° C | 68% | 1010.5 hPa | 0 mm | - | 52 W/m² | - |
| 1787738724 | 30.56° C | 67% | 1010.8 hPa | 0 mm | - | 60 W/m² | - |
| 1787738425 | 31.11° C | 66% | 1010.8 hPa | 0 mm | - | 72 W/m² | - |
| 1787738125 | 31.11° C | 66% | 1010.5 hPa | 0 mm | - | 84 W/m² | - |
| 1787737824 | 31.11° C | 65% | 1010.5 hPa | 0 mm | - | 107 W/m² | - |
| 1787737524 | 31.11° C | 63% | 1010.5 hPa | 0 mm | - | 118 W/m² | - |
| 1787737225 | 31.11° C | 62% | 1010.5 hPa | 0 mm | - | 113 W/m² | - |
| 1787736925 | 31.11° C | 62% | 1010.5 hPa | 0 mm | - | 137 W/m² | - |
| 1787736625 | 31.11° C | 63% | 1010.2 hPa | 0 mm | - | 151 W/m² | - |
* Rain latest hour (hover to see other rain measurements)
** Current wind speed in m/s (hover to see current wind gust speed)